This demonstration page uses our WeatherBlox Daily Observations layout. Learn more.

Left ArrowRight Arrow

34.16533, -84.80231

Hourly Observations for April 28, 2022

Temp ( °F °C ) Dew Point ( °F °C ) Humidity (%) Winds ( mph kmh ) Pressure ( in mb ) Visibility ( mi km ) Precip ( " mm )
12:15 am 00:15 Clear 52 11 43 6 72 72 Calm 30.16 1021 10 16 0.00 0.00
12:35 am 00:35 Mostly Clear 52 11 43 6 72 72 Calm 30.17 1022 10 16 0.00 0.00
12:55 am 00:55 Partly Cloudy 50 10 43 6 76 76 Calm 30.16 1021 10 16 0.00 0.00
1:15 am 01:15 Partly Cloudy 50 10 43 6 76 76 Calm 30.16 1021 10 16 0.00 0.00
1:35 am 01:35 Mostly Clear 50 10 45 7 82 82 Calm 30.16 1021 10 16 0.00 0.00
1:55 am 01:55 Mostly Clear 48 9 43 6 82 82 Calm 30.16 1021 10 16 0.00 0.00
2:10 am 02:10 Clear 48 9 43 6 82 82 Calm 30.16 1021 10 16 0.00 0.00
2:35 am 02:35 Clear 46 8 45 7 93 93 Calm 30.17 1022 10 16 0.00 0.00
2:55 am 02:55 Mostly Clear 46 8 45 7 93 93 Calm 30.17 1022 10 16 0.00 0.00
3:15 am 03:15 Partly Cloudy 46 8 43 6 87 87 Calm 30.16 1021 10 16 0.00 0.00
3:35 am 03:35 Partly Cloudy 46 8 43 6 87 87 Calm 30.16 1021 10 16 0.00 0.00
3:55 am 03:55 Partly Cloudy 46 8 43 6 87 87 Calm 30.16 1021 10 16 0.00 0.00
4:15 am 04:15 Mostly Clear 46 8 45 7 93 93 Calm 30.17 1022 10 16 0.00 0.00
4:35 am 04:35 Mostly Clear 45 7 43 6 93 93 Calm 30.17 1022 10 16 0.00 0.00
4:55 am 04:55 Clear 45 7 43 6 93 93 Calm 30.18 1022 10 16 0.00 0.00
5:15 am 05:15 Mostly Clear 45 7 43 6 93 93 Calm 30.19 1022 10 16 0.00 0.00
5:35 am 05:35 Mostly Clear 45 7 43 6 93 93 Calm 30.18 1022 10 16 0.00 0.00
5:55 am 05:55 Mostly Clear 45 7 43 6 93 93 Calm 30.18 1022 10 16 0.00 0.00
6:15 am 06:15 Mostly Clear 45 7 43 6 93 93 Calm 30.18 1022 10 16 0.00 0.00
6:35 am 06:35 Mostly Clear 45 7 43 6 93 93 Calm 30.19 1022 10 16 0.00 0.00
6:55 am 06:55 Sunny 43 6 43 6 100 100 Calm 30.20 1023 10 16 0.00 0.00
7:15 am 07:15 Sunny 43 6 43 6 100 100 Calm 30.21 1023 8 13 0.00 0.00
7:35 am 07:35 Sunny 45 7 43 6 93 93 Calm 30.22 1023 8 13 0.00 0.00
7:55 am 07:55 Sunny 46 8 43 6 87 87 Calm 30.22 1023 10 16 0.00 0.00
8:15 am 08:15 Sunny 48 9 45 7 87 87 Calm 30.22 1023 8 13 0.00 0.00
8:35 am 08:35 Sunny 50 10 45 7 82 82 Calm 30.22 1023 10 16 0.00 0.00
8:55 am 08:55 Sunny 52 11 46 8 82 82 Calm 30.22 1023 10 16 0.00 0.00
9:15 am 09:15 Sunny 55 13 48 9 77 77 Calm 30.21 1023 10 16 0.00 0.00
9:35 am 09:35 Sunny 57 14 48 9 72 72 Calm 30.21 1023 10 16 0.00 0.00
9:55 am 09:55 Sunny 61 16 48 9 63 63 VRB 3 6 30.21 1023 10 16 0.00 0.00
10:15 am 10:15 Sunny 63 17 45 7 52 52 VRB 3 6 30.21 1023 10 16 0.00 0.00
10:35 am 10:35 Sunny 64 18 45 7 49 49 E 5 7 30.21 1023 10 16 0.00 0.00
10:55 am 10:55 Sunny 68 20 45 7 43 43 VRB 3 6 30.19 1022 10 16 0.00 0.00
11:15 am 11:15 Sunny 70 21 43 6 38 38 VRB 5 7 30.19 1022 10 16 0.00 0.00
11:35 am 11:35 Sunny 72 22 41 5 33 33 SSE 8 13 30.18 1022 10 16 0.00 0.00
11:55 am 11:55 Sunny 72 22 41 5 33 33 E 6 9 30.18 1022 10 16 0.00 0.00
12:15 pm 12:15 Sunny 73 23 39 4 29 29 VRB 5 7 30.16 1021 10 16 0.00 0.00
12:35 pm 12:35 Sunny 73 23 39 4 29 29 ENE 8 13 30.16 1021 10 16 0.00 0.00
12:55 pm 12:55 Sunny 75 24 39 4 27 27 ESE 8 13 30.15 1021 10 16 0.00 0.00
1:15 pm 13:15 Sunny 75 24 37 3 25 25 VRB 5 7 30.14 1021 10 16 0.00 0.00
1:35 pm 13:35 Sunny 75 24 37 3 25 25 Calm 30.13 1020 10 16 0.00 0.00
1:55 pm 13:55 Sunny 77 25 37 3 24 24 VRB 6 9 30.12 1020 10 16 0.00 0.00
2:15 pm 14:15 Sunny 77 25 37 3 24 24 Calm 30.11 1020 10 16 0.00 0.00
2:35 pm 14:35 Sunny 77 25 39 4 26 26 VRB 5 7 30.10 1019 10 16 0.00 0.00
2:55 pm 14:55 Sunny 77 25 37 3 24 24 VRB 5 7 30.10 1019 9 14 0.00 0.00
3:15 pm 15:15 Sunny 79 26 34 1 20 20 SSE 5 7 30.09 1019 10 16 0.00 0.00
3:35 pm 15:35 Sunny 79 26 36 2 21 21 VRB 5 7 30.08 1019 10 16 0.00 0.00
3:55 pm 15:55 Sunny 79 26 37 3 23 23 S 8 13 30.07 1018 10 16 0.00 0.00
4:15 pm 16:15 Sunny 79 26 36 2 21 21 SSW 5 7 30.06 1018 10 16 0.00 0.00
4:35 pm 16:35 Sunny 77 25 37 3 24 24 E 6 9 30.05 1018 10 16 0.00 0.00
4:55 pm 16:55 Sunny 79 26 37 3 23 23 S 5 7 30.04 1017 10 16 0.00 0.00
5:15 pm 17:15 Sunny 81 27 36 2 20 20 S 7 11 30.03 1017 10 16 0.00 0.00
5:35 pm 17:35 Sunny 79 26 37 3 23 23 VRB 5 7 30.04 1017 10 16 0.00 0.00
5:55 pm 17:55 Sunny 79 26 37 3 23 23 Calm 30.04 1017 10 16 0.00 0.00
6:15 pm 18:15 Sunny 79 26 36 2 21 21 Calm 30.04 1017 10 16 0.00 0.00
6:35 pm 18:35 Sunny 79 26 37 3 23 23 VRB 5 7 30.03 1017 10 16 0.00 0.00
6:55 pm 18:55 Sunny 79 26 37 3 23 23 SSE 6 9 30.03 1017 10 16 0.00 0.00
7:15 pm 19:15 Sunny 79 26 37 3 23 23 SSE 5 7 30.03 1017 10 16 0.00 0.00
7:35 pm 19:35 undefined N/A N/A N/A undefined N/A N/A N/A 0.00 0.00
7:55 pm 19:55 undefined N/A N/A N/A undefined N/A N/A N/A 0.00 0.00
8:15 pm 20:15 undefined N/A N/A N/A undefined N/A N/A N/A 0.00 0.00
8:35 pm 20:35 undefined N/A N/A N/A undefined N/A N/A N/A 0.00 0.00
8:55 pm 20:55 undefined N/A N/A N/A undefined N/A N/A N/A 0.00 0.00
9:15 pm 21:15 undefined N/A N/A N/A undefined N/A N/A N/A 0.00 0.00

Powered by AerisWeather